Regional Weather Roundup
Issued by NWS Grand Forks, ND

Home | Current Version | Previous Version | Text Only | Print | Product List | Glossary On
Versions: 1 2 3 4 5 6 7 8 9 10 11 12 13 14 15 16 17 18 19 20 21 22 23 24 25 26 27 28 29 30 31 32 33 34 35 36 37 38 39 40 41 42 43 44 45 46 47 48 49 50
000
ASUS43 KFGF 180510
RWRFGF
PRAIRIE TO PINES  WEATHER ROUNDUP
NATIONAL WEATHER SERVICE EASTERN NORTH DAKOTA/GRAND FORKS ND
1100 PM CST FRI NOV 17 2017

 **SATELLITE DATA USED TO AUGMENT SKY COVER AT AUTOMATED STATIONS**
 *****  WEATHER ACROSS EASTERN NORTH DAKOTA  *****

CITY           SKY/WX    TMP DP  RH WIND       PRES   REMARKS
GRAND FORKS    MOCLDY    15  13  91 W6        29.82R WCI   6
GRAND FRKS AFB FAIR      14  10  86 NW8       29.82R WCI   3
GRAND FRKS NWS   N/A     18 N/A N/A NW3         N/A
DEVILS LAKE    FAIR      11   9  92 NW6       29.80S WCI   1
FARGO          FAIR      23  16  74 N7        29.79S WCI  15
WAHPETON ARPT  NOT AVBL
$$

 ***** WEATHER ACROSS CENTRAL AND WESTERN NORTH DAKOTA  *****

CITY           SKY/WX    TMP DP  RH WIND       PRES   REMARKS
BISMARCK       CLOUDY    29  26  89 SW7       29.80R WCI  22
MINOT          FAIR      17  11  77 NW10      29.81R WCI   5
JAMESTOWN      FAIR      18  15  88 N6        29.79R WCI  10
MINOT AFB      MOCLDY    15  10  79 NW13      29.81R WCI   1
GARRISON         N/A     19  15  84 N7        29.79R WCI  10
WILLISTON      FAIR      13   8  81 N13       29.88R WCI  -2
DICKINSON      FAIR      24  23  96 W9        29.77R WCI  14
HETTINGER      MOCLDY    28  25  88 NW8       29.81R WCI  20
$$

 *****  OTHER AIRPORT OBSERVATIONS IN OUR AREA  *****

CITY           SKY/WX    TMP DP  RH WIND       PRES   REMARKS
WALHALLA       FAIR      14  14 100 W7        29.81S WCI   4
GRAFTON AIRPOR FAIR      14  12  92 W5        29.83S WCI   6
VALLEY CITY AR FAIR      19  19 100 NW5       29.80S WCI  13
CANDO          FAIR      10  10 100 CALM      29.82R
CAVALIER APRT  FAIR      10   9  92 W10       29.82R WCI  -3
GWINNER          N/A     23  18  80 N7        29.79F WCI  15
SHEYENNE NWR     N/A     24  18  77 N3        29.95S
ROLLA          CLOUDY    14  10  85 NW7       29.78R WCI   4
 ***** THE ABOVE OBSERVATIONS ARE NON NWS ARE NOT QUALITY
       CONTROLLED AND MAY MIS-REPORT RAIN FOR SNOW...
$$

  *****  WEATHER ACROSS NORTHERN MINNESOTA  *****

CITY           SKY/WX    TMP DP  RH WIND       PRES   REMARKS
FLAG ISLAND    FAIR      16  12  86 W9        29.75S WCI   4
WARROAD        FAIR      14  10  85 NW5       29.77S WCI   6
ROSEAU         FAIR      16  10  79 W5        29.77S WCI   9
HALLOCK        FAIR      10   9  92 CALM      29.80S
THF RVR FALLS  FAIR      16  14  92 NW6       29.80R WCI   7
BAUDETTE       FAIR      18  14  84 W8        29.74S WCI   8
WASKISH        FAIR      19  18  93 NW6       29.75R WCI  11
CROOKSTON      FAIR      18  16  93 N5        29.82R WCI  11
STEPHEN NDAWN    N/A     14  10  85 W1          N/A
GREENBUSH NDAW   N/A     12  10  92 SW3         N/A
$$
  *****  WEATHER ACROSS CENTRAL AND WEST MINNESOTA  *****

CITY           SKY/WX    TMP DP  RH WIND       PRES   REMARKS
FOSSTON        FAIR      18  16  93 NW5       29.77R WCI  11
BEMIDJI        FAIR      21  17  83 NW9       29.74S WCI  11
PARK RAPIDS    FAIR      26  21  81 NW8       29.72R WCI  18
ELBOW LAKE     FAIR      26  20  80 W14       29.76R WCI  14
WADENA         FAIR      27  23  86 NW7       29.73R WCI  19
DETROIT LAKES  FAIR      23  19  86 N9        29.77R WCI  13
MOORHEAD       FAIR      21  16  79 N5        29.80F WCI  15
FERGUS FALLS   FAIR      25  18  74 N10       29.79R WCI  15
MORRIS MN      FAIR      28  21  74 NW17      29.74S WCI  16
STAPLES        FAIR      28  27  93 NW8       29.72R WCI  20
$$
  *****  WEATHER ELSEWHERE ACROSS MINNESOTA  *****

CITY           SKY/WX    TMP DP  RH WIND       PRES   REMARKS
DULUTH         MOCLDY    32  31  96 NW7       29.63S
INTRNTL FALLS  FAIR      22  16  78 NW7       29.71S HAZE    WCI  13
ELY            CLOUDY    30  28  93 CALM      29.65R
CLOQUET        FAIR      32  30  93 NW8       29.64F FOG     WCI  25
WHEATON        FAIR      27  19  74 NW12      29.79F WCI  16
BRAINERD       FAIR      33  29  85 N5        29.69F
HIBBING        MOCLDY    29  26  89 N10       29.68R WCI  20
ALEXANDRIA     FAIR      30  25  81 NW9       29.73R WCI  22
SAINT CLOUD    FAIR      33  33 100 CALM      29.68R FOG
MINNEAPOLIS    CLOUDY    37  36  96 N8        29.65F
$$

  *****  WEATHER ACROSS SOUTH DAKOTA  *****

CITY           SKY/WX    TMP DP  RH WIND       PRES   REMARKS
SIOUX FALLS    CLOUDY    37  32  82 N8        29.72R
BROOKINGS      CLOUDY    32  28  85 N9        29.72S WCI  24
WATERTOWN      CLOUDY    30  25  81 N6        29.71F WCI  24
HURON          CLOUDY    34  24  67 N8        29.77R
SISSETON         N/A     27  21  78 N10       29.75F WCI  17
ABERDEEN       FAIR      28  20  71 N5        29.80S WCI  23
MITCHELL       CLOUDY    37  28  70 N6        29.76S
PIERRE         LGT RAIN  38  34  85 W7        29.80R
MOBRIDGE       FAIR      31  25  78 CALM      29.76R
RAPID CITY     FAIR      38  29  70 NW17      29.83R
$$

  *****  SOME WEATHER IN NEARBY STATES *****

CITY           SKY/WX    TMP DP  RH WIND       PRES   REMARKS
GLASGOW MT     MOCLDY    17  14  88 NW6       29.90R WCI   9
GREAT FALLS MT FAIR      29  14  53 SW14      29.95R WCI  18
CHEYENNE WY    FAIR      33  25  72 N20G28    29.85R WCI  21
SCOTTSBLUFF NE CLOUDY    39  29  67 NW16      29.84R
OMAHA NE       CLOUDY    48  41  76 N16       29.62R
DES MOINES IA  FOG       47  47 100 N7        29.54F VSB 3/4
DAVENPORT IA   CLOUDY    46  44  93 N6        29.57S FOG
CHICAGO IL     LGT RAIN  47  44  90 SW10      29.57F FOG
EAU CLAIRE WI  CLOUDY    35  34  96 NE5       29.61F FOG
LA CROSSE WI   LGT RAIN  39  38  96 N8        29.60F FOG
$$

  *****  SOME NATIONAL WEATHER *****

CITY           SKY/WX    TMP DP  RH WIND       PRES   REMARKS
LA GUARDIA NY  FAIR      41  18  39 W12       30.07S
RALEIGH NC     FAIR      36  33  89 CALM      30.14F
ATLANTA GA     MOCLDY    51  44  77 SE3       30.08F
NEW ORLEANS LA FAIR      67  65  93 SE8       30.00F
OKLAHOMA CITY  CLOUDY    74  57  55 SW21G29   29.56F
ALBUQUERQUE NM MOCLDY    56  38  50 SW16      29.98F
SALT LAKE CITY FAIR      34  25  69 N7        30.29R
LOS ANGELES CA FAIR      63  56  78 W9        30.08R
BOISE ID       FAIR      32  22  66 W5        30.30R
SEATTLE WA     MOCLDY    44  38  79 S10       30.28R
$$

*** WEATHER ACROSS MANITOBA...SASKATCHEWAN AND ONTARIO ***
                ***ONTARIO***

CITY           SKY/WX    TMP DP  RH WIND       PRES   REMARKS
GERALDTON      CLOUDY    32  32 100 W3        29.59S
THUNDER BAY    CLOUDY    32  32 100 VRB2      29.63F
SIOUX LOOKOUT  CLEAR     16  12  86 NW5       29.68R WCI   9
TORONTO        MOCLDY    37  30  75 SE8       29.84F
BIG TROUT LK   FLURRIES  16  12  86 W12       29.61R WCI   3
PICKLE LAKE    NOT AVBL
DRYDEN         CLEAR     16  16 100 W6        29.69R WCI   7
KENORA         NOT AVBL
$$
                *** MANITOBA***

CITY           SKY/WX    TMP DP  RH WIND       PRES   REMARKS
BRANDON        PTCLDY     3   0  85 W8        29.79R WCI -10
DAUPHIN        CLOUDY    16   9  73 W18G26    29.80R WCI  -1
ISLAND LAKE    CLOUDY    12   7  79 SW12      29.66S WCI  -2
PILOT MOUND      N/A      9   5  85 W6          N/A  WCI  -1
THE PAS        FLURRIES  10   3  72 W13       29.74R WCI  -5
THOMPSON       FLURRIES  10   3  72 W13       29.58R WCI  -5
WINNIPEG       MOCLDY     7   3  85 W8        29.79S WCI  -6
LYNN LAKE      LGT SNOW   3   0  85 NW12G18   29.56R WCI -13
CHURCHILL      LGT SNOW   5   1  85 W17       29.40R DRFTSNOWWCI -14
$$
                ***SASKATCHEWAN***

CITY           SKY/WX    TMP DP  RH WIND       PRES   REMARKS
ESTEVAN        CLOUDY     5   0  78 NW13      29.86R WCI -12
KINDERSLEY     CLEAR      3  -2  78 W8        29.93R WCI -10
LLOYDMINSTER   CLEAR     -4  -8  84 W12       29.89R WCI -22
PRINCE ALBERT  CLEAR      0  -6  78 W8        29.90R WCI -15
REGINA         CLOUDY    10   9  92 W9        29.88R WCI  -2
YORKTON        CLOUDY    14   9  79 NW14      29.81R WCI  -1
N. BATTLEFORD  CLEAR      0  -8  71 W9        29.95R WCI -16
LA RONGE       FLURRIES  10   3  72 W13       29.79R WCI  -5
SASKATOON      CLEAR     -2  -8  78 W8        29.94R WCI -17
SWIFT CURRENT  CLEAR      9   5  85 W13       29.89R WCI  -7
$$
NOTE: THESE ARE AUTOMATED STATIONS WITH LIMITED QUALITY CONTROL
      "FAIR" INDICATES FEW OR NO CLOUDS BELOW 12,000 FEET WITH NO
      SIGNIFICANT WEATHER AND/OR OBSTRUCTIONS TO VISIBILITY.
      SKY/WX - SKY CONDITION AND SIGNIFICANT WEATHER.
      TMP - AIR TEMPERATURE.    DP   - DEWPOINT TEMPERATURE.
      RH  - RELATIVE HUMIDITY.  PRES - PRESSURE.
      HX  - HEAT INDEX.         WCI  - WIND CHILL INDEX.
$



USA.gov is the U.S. government's official web portal to all federal, state and local government web resources and services.